Time,TemperatureF,DewpointF,PressureIn,WindDirection,WindDirectionDegrees,WindSpeedMPH,WindSpeedGustMPH,Humidity,HourlyPrecipIn,Conditions,Clouds,dailyrainin,SoftwareType,DateUTC
2013-05-26 00:03:00,56.0,-99.9,-100.00,North,-999,-999.0,-999.0,-999,0.52,,,0.52,,2013-05-26 05:03:00,
2013-05-26 00:12:00,56.0,-99.9,-100.00,North,-999,-999.0,-999.0,-999,0.52,,,0.52,,2013-05-26 05:12:00,
2013-05-26 00:22:00,56.0,-99.9,-100.00,North,-999,-999.0,-999.0,-999,0.52,,,0.52,,2013-05-26 05:22:00,
2013-05-26 00:30:00,52.0,-99.9,-100.00,North,-999,-999.0,-999.0,-999,0.73,,,1.25,,2013-05-26 05:30:00,
2013-05-26 00:52:00,52.0,-99.9,-100.00,North,-999,-999.0,-999.0,-999,0.73,,,1.25,,2013-05-26 05:52:00,
2013-05-26 01:02:00,52.0,-99.9,-100.00,North,-999,-999.0,-999.0,-999,0.73,,,1.25,,2013-05-26 06:02:00,
2013-05-26 01:12:00,52.0,-99.9,-100.00,North,-999,-999.0,-999.0,-999,0.73,,,1.25,,2013-05-26 06:12:00,
2013-05-26 01:22:00,52.0,-99.9,-100.00,North,-999,-999.0,-999.0,-999,0.73,,,1.25,,2013-05-26 06:22:00,
2013-05-26 02:30:00,52.0,-99.9,-100.00,North,-999,-999.0,-999.0,-999,0.16,,,1.96,,2013-05-26 07:30:00,
2013-05-26 02:52:00,52.0,-99.9,-100.00,North,-999,-999.0,-999.0,-999,0.16,,,1.96,,2013-05-26 07:52:00,
2013-05-26 03:02:00,52.0,-99.9,-100.00,North,-999,-999.0,-999.0,-999,0.16,,,1.96,,2013-05-26 08:02:00,
2013-05-26 03:12:00,52.0,-99.9,-100.00,North,-999,-999.0,-999.0,-999,0.16,,,1.96,,2013-05-26 08:12:00,
2013-05-26 03:22:00,52.0,-99.9,-100.00,North,-999,-999.0,-999.0,-999,0.16,,,1.96,,2013-05-26 08:22:00,
2013-05-26 03:30:00,52.0,-99.9,-100.00,North,-999,-999.0,-999.0,-999,0.21,,,2.17,,2013-05-26 08:30:00,
2013-05-26 03:53:00,52.0,-99.9,-100.00,North,-999,-999.0,-999.0,-999,0.21,,,2.17,,2013-05-26 08:53:00,
2013-05-26 04:02:00,52.0,-99.9,-100.00,North,-999,-999.0,-999.0,-999,0.21,,,2.17,,2013-05-26 09:02:00,
2013-05-26 04:11:00,52.0,-99.9,-100.00,North,-999,-999.0,-999.0,-999,0.21,,,2.17,,2013-05-26 09:11:00,
2013-05-26 04:22:00,52.0,-99.9,-100.00,North,-999,-999.0,-999.0,-999,0.21,,,2.17,,2013-05-26 09:22:00,
2013-05-26 04:30:00,55.0,-99.9,-100.00,North,-999,-999.0,-999.0,-999,0.03,,,2.20,,2013-05-26 09:30:00,
2013-05-26 04:53:00,55.0,-99.9,-100.00,North,-999,-999.0,-999.0,-999,0.03,,,2.20,,2013-05-26 09:53:00,
2013-05-26 05:03:00,55.0,-99.9,-100.00,North,-999,-999.0,-999.0,-999,0.03,,,2.20,,2013-05-26 10:03:00,
2013-05-26 05:12:00,55.0,-99.9,-100.00,North,-999,-999.0,-999.0,-999,0.03,,,2.20,,2013-05-26 10:12:00,
2013-05-26 05:23:00,55.0,-99.9,-100.00,North,-999,-999.0,-999.0,-999,0.03,,,2.20,,2013-05-26 10:23:00,
2013-05-26 05:30:00,53.0,-99.9,-100.00,North,-999,-999.0,-999.0,-999,0.09,,,2.29,,2013-05-26 10:30:00,
2013-05-26 05:52:00,53.0,-99.9,-100.00,North,-999,-999.0,-999.0,-999,0.09,,,2.29,,2013-05-26 10:52:00,
2013-05-26 06:03:00,53.0,-99.9,-100.00,North,-999,-999.0,-999.0,-999,0.09,,,2.29,,2013-05-26 11:03:00,
2013-05-26 06:12:00,53.0,-99.9,-100.00,North,-999,-999.0,-999.0,-999,0.09,,,2.29,,2013-05-26 11:12:00,
2013-05-26 06:23:00,53.0,-99.9,-100.00,North,-999,-999.0,-999.0,-999,0.09,,,2.29,,2013-05-26 11:23:00,
2013-05-26 06:30:00,53.0,-99.9,-100.00,North,-999,-999.0,-999.0,-999,0.01,,,2.30,,2013-05-26 11:30:00,
2013-05-26 06:53:00,53.0,-99.9,-100.00,North,-999,-999.0,-999.0,-999,0.01,,,2.30,,2013-05-26 11:53:00,
2013-05-26 07:02:00,53.0,-99.9,-100.00,North,-999,-999.0,-999.0,-999,0.01,,,2.30,,2013-05-26 12:02:00,
2013-05-26 07:12:00,53.0,-99.9,-100.00,North,-999,-999.0,-999.0,-999,0.01,,,2.30,,2013-05-26 12:12:00,
2013-05-26 07:22:00,53.0,-99.9,-100.00,North,-999,-999.0,-999.0,-999,0.01,,,2.30,,2013-05-26 12:22:00,
2013-05-26 07:30:00,52.0,-99.9,-100.00,North,-999,-999.0,-999.0,-999,0.00,,,2.30,,2013-05-26 12:30:00,
2013-05-26 07:53:00,52.0,-99.9,-100.00,North,-999,-999.0,-999.0,-999,0.00,,,2.30,,2013-05-26 12:53:00,
2013-05-26 08:02:00,52.0,-99.9,-100.00,North,-999,-999.0,-999.0,-999,0.00,,,2.30,,2013-05-26 13:02:00,
2013-05-26 08:11:00,52.0,-99.9,-100.00,North,-999,-999.0,-999.0,-999,0.00,,,2.30,,2013-05-26 13:11:00,
2013-05-26 08:22:00,52.0,-99.9,-100.00,North,-999,-999.0,-999.0,-999,0.00,,,2.30,,2013-05-26 13:22:00,
2013-05-26 08:30:00,55.0,-99.9,-100.00,North,-999,-999.0,-999.0,-999,0.00,,,2.30,,2013-05-26 13:30:00,
2013-05-26 08:53:00,55.0,-99.9,-100.00,North,-999,-999.0,-999.0,-999,0.00,,,2.30,,2013-05-26 13:53:00,
2013-05-26 09:02:00,55.0,-99.9,-100.00,North,-999,-999.0,-999.0,-999,0.00,,,2.30,,2013-05-26 14:02:00,
2013-05-26 09:11:00,55.0,-99.9,-100.00,North,-999,-999.0,-999.0,-999,0.00,,,2.30,,2013-05-26 14:11:00,
2013-05-26 09:22:00,55.0,-99.9,-100.00,North,-999,-999.0,-999.0,-999,0.00,,,2.30,,2013-05-26 14:22:00,
2013-05-26 09:52:00,54.0,-99.9,-100.00,North,-999,-999.0,-999.0,-999,0.00,,,2.30,,2013-05-26 14:52:00,
2013-05-26 10:02:00,54.0,-99.9,-100.00,North,-999,-999.0,-999.0,-999,0.00,,,2.30,,2013-05-26 15:02:00,
2013-05-26 10:12:00,54.0,-99.9,-100.00,North,-999,-999.0,-999.0,-999,0.00,,,2.30,,2013-05-26 15:12:00,
2013-05-26 10:22:00,54.0,-99.9,-100.00,North,-999,-999.0,-999.0,-999,0.00,,,2.30,,2013-05-26 15:22:00,
2013-05-26 10:30:00,54.0,-99.9,-100.00,North,-999,-999.0,-999.0,-999,0.00,,,2.30,,2013-05-26 15:30:00,
2013-05-26 10:54:00,54.0,-99.9,-100.00,North,-999,-999.0,-999.0,-999,0.00,,,2.30,,2013-05-26 15:54:00,
2013-05-26 11:03:00,54.0,-99.9,-100.00,North,-999,-999.0,-999.0,-999,0.00,,,2.30,,2013-05-26 16:03:00,
2013-05-26 11:13:00,54.0,-99.9,-100.00,North,-999,-999.0,-999.0,-999,0.00,,,2.30,,2013-05-26 16:13:00,
2013-05-26 11:23:00,54.0,-99.9,-100.00,North,-999,-999.0,-999.0,-999,0.00,,,2.30,,2013-05-26 16:23:00,
2013-05-26 11:30:00,54.0,-99.9,-100.00,North,-999,-999.0,-999.0,-999,0.23,,,2.53,,2013-05-26 16:30:00,
2013-05-26 11:53:00,54.0,-99.9,-100.00,North,-999,-999.0,-999.0,-999,0.23,,,2.53,,2013-05-26 16:53:00,
2013-05-26 12:02:00,54.0,-99.9,-100.00,North,-999,-999.0,-999.0,-999,0.23,,,2.53,,2013-05-26 17:02:00,
2013-05-26 12:12:00,54.0,-99.9,-100.00,North,-999,-999.0,-999.0,-999,0.23,,,2.53,,2013-05-26 17:12:00,
2013-05-26 12:23:00,54.0,-99.9,-100.00,North,-999,-999.0,-999.0,-999,0.23,,,2.53,,2013-05-26 17:23:00,
2013-05-26 12:30:00,55.0,-99.9,-100.00,North,-999,-999.0,-999.0,-999,0.02,,,2.55,,2013-05-26 17:30:00,
2013-05-26 12:53:00,55.0,-99.9,-100.00,North,-999,-999.0,-999.0,-999,0.02,,,2.55,,2013-05-26 17:53:00,
2013-05-26 13:02:00,55.0,-99.9,-100.00,North,-999,-999.0,-999.0,-999,0.02,,,2.55,,2013-05-26 18:02:00,
2013-05-26 13:12:00,55.0,-99.9,-100.00,North,-999,-999.0,-999.0,-999,0.02,,,2.55,,2013-05-26 18:12:00,
2013-05-26 13:22:00,55.0,-99.9,-100.00,North,-999,-999.0,-999.0,-999,0.02,,,2.55,,2013-05-26 18:22:00,
2013-05-26 13:30:00,54.0,-99.9,-100.00,North,-999,-999.0,-999.0,-999,0.01,,,2.56,,2013-05-26 18:30:00,
2013-05-26 13:52:00,54.0,-99.9,-100.00,North,-999,-999.0,-999.0,-999,0.01,,,2.56,,2013-05-26 18:52:00,
2013-05-26 14:02:00,54.0,-99.9,-100.00,North,-999,-999.0,-999.0,-999,0.01,,,2.56,,2013-05-26 19:02:00,
2013-05-26 14:12:00,54.0,-99.9,-100.00,North,-999,-999.0,-999.0,-999,0.01,,,2.56,,2013-05-26 19:12:00,
2013-05-26 14:22:00,54.0,-99.9,-100.00,North,-999,-999.0,-999.0,-999,0.01,,,2.56,,2013-05-26 19:22:00,
2013-05-26 14:30:00,55.0,-99.9,-100.00,North,-999,-999.0,-999.0,-999,0.00,,,2.56,,2013-05-26 19:30:00,
2013-05-26 14:53:00,55.0,-99.9,-100.00,North,-999,-999.0,-999.0,-999,0.00,,,2.56,,2013-05-26 19:53:00,
2013-05-26 15:02:00,55.0,-99.9,-100.00,North,-999,-999.0,-999.0,-999,0.00,,,2.56,,2013-05-26 20:02:00,
2013-05-26 15:12:00,55.0,-99.9,-100.00,North,-999,-999.0,-999.0,-999,0.00,,,2.56,,2013-05-26 20:12:00,
2013-05-26 15:22:00,55.0,-99.9,-100.00,North,-999,-999.0,-999.0,-999,0.00,,,2.56,,2013-05-26 20:22:00,
2013-05-26 15:30:00,58.0,-99.9,-100.00,North,-999,-999.0,-999.0,-999,0.00,,,2.56,,2013-05-26 20:30:00,
2013-05-26 15:53:00,58.0,-99.9,-100.00,North,-999,-999.0,-999.0,-999,0.00,,,2.56,,2013-05-26 20:53:00,
2013-05-26 16:02:00,58.0,-99.9,-100.00,North,-999,-999.0,-999.0,-999,0.00,,,2.56,,2013-05-26 21:02:00,
2013-05-26 16:12:00,58.0,-99.9,-100.00,North,-999,-999.0,-999.0,-999,0.00,,,2.56,,2013-05-26 21:12:00,
2013-05-26 16:23:00,58.0,-99.9,-100.00,North,-999,-999.0,-999.0,-999,0.00,,,2.56,,2013-05-26 21:23:00,
2013-05-26 16:30:00,61.0,-99.9,-100.00,North,-999,-999.0,-999.0,-999,0.00,,,2.56,,2013-05-26 21:30:00,
2013-05-26 16:53:00,61.0,-99.9,-100.00,North,-999,-999.0,-999.0,-999,0.00,,,2.56,,2013-05-26 21:53:00,
2013-05-26 17:03:00,61.0,-99.9,-100.00,North,-999,-999.0,-999.0,-999,0.00,,,2.56,,2013-05-26 22:03:00,
2013-05-26 17:12:00,61.0,-99.9,-100.00,North,-999,-999.0,-999.0,-999,0.00,,,2.56,,2013-05-26 22:12:00,
2013-05-26 17:23:00,61.0,-99.9,-100.00,North,-999,-999.0,-999.0,-999,0.00,,,2.56,,2013-05-26 22:23:00,
2013-05-26 17:53:00,67.0,-99.9,-100.00,North,-999,-999.0,-999.0,-999,0.00,,,2.56,,2013-05-26 22:53:00,
2013-05-26 18:02:00,67.0,-99.9,-100.00,North,-999,-999.0,-999.0,-999,0.00,,,2.56,,2013-05-26 23:02:00,
2013-05-26 18:12:00,67.0,-99.9,-100.00,North,-999,-999.0,-999.0,-999,0.00,,,2.56,,2013-05-26 23:12:00,
2013-05-26 18:22:00,67.0,-99.9,-100.00,North,-999,-999.0,-999.0,-999,0.00,,,2.56,,2013-05-26 23:22:00,
2013-05-26 18:30:00,68.0,-99.9,-100.00,North,-999,-999.0,-999.0,-999,0.00,,,2.56,,2013-05-26 23:30:00,
2013-05-26 18:52:00,68.0,-99.9,-100.00,North,-999,-999.0,-999.0,-999,0.00,,,2.56,,2013-05-26 23:52:00,
2013-05-26 19:02:00,68.0,-99.9,-100.00,North,-999,-999.0,-999.0,-999,0.00,,,2.56,,2013-05-27 00:02:00,
2013-05-26 19:12:00,68.0,-99.9,-100.00,North,-999,-999.0,-999.0,-999,0.00,,,2.56,,2013-05-27 00:12:00,
2013-05-26 19:22:00,68.0,-99.9,-100.00,North,-999,-999.0,-999.0,-999,0.00,,,2.56,,2013-05-27 00:22:00,
2013-05-26 20:30:00,60.0,-99.9,-100.00,North,-999,-999.0,-999.0,-999,0.02,,,2.60,,2013-05-27 01:30:00,
2013-05-26 20:52:00,60.0,-99.9,-100.00,North,-999,-999.0,-999.0,-999,0.02,,,2.60,,2013-05-27 01:52:00,
2013-05-26 21:02:00,60.0,-99.9,-100.00,North,-999,-999.0,-999.0,-999,0.02,,,2.60,,2013-05-27 02:02:00,
2013-05-26 21:11:00,60.0,-99.9,-100.00,North,-999,-999.0,-999.0,-999,0.02,,,2.60,,2013-05-27 02:11:00,
2013-05-26 21:22:00,60.0,-99.9,-100.00,North,-999,-999.0,-999.0,-999,0.02,,,2.60,,2013-05-27 02:22:00,
2013-05-26 21:30:00,57.0,-99.9,-100.00,North,-999,-999.0,-999.0,-999,0.00,,,2.60,,2013-05-27 02:30:00,
2013-05-26 21:52:00,57.0,-99.9,-100.00,North,-999,-999.0,-999.0,-999,0.00,,,2.60,,2013-05-27 02:52:00,
2013-05-26 22:02:00,57.0,-99.9,-100.00,North,-999,-999.0,-999.0,-999,0.00,,,2.60,,2013-05-27 03:02:00,
2013-05-26 22:11:00,57.0,-99.9,-100.00,North,-999,-999.0,-999.0,-999,0.00,,,2.60,,2013-05-27 03:11:00,
2013-05-26 22:22:00,57.0,-99.9,-100.00,North,-999,-999.0,-999.0,-999,0.00,,,2.60,,2013-05-27 03:22:00,
2013-05-26 22:30:00,57.0,-99.9,-100.00,North,-999,-999.0,-999.0,-999,0.00,,,2.60,,2013-05-27 03:30:00,
2013-05-26 22:54:00,57.0,-99.9,-100.00,North,-999,-999.0,-999.0,-999,0.00,,,2.60,,2013-05-27 03:54:00,
2013-05-26 23:03:00,57.0,-99.9,-100.00,North,-999,-999.0,-999.0,-999,0.00,,,2.60,,2013-05-27 04:03:00,
2013-05-26 23:13:00,57.0,-99.9,-100.00,North,-999,-999.0,-999.0,-999,0.00,,,2.60,,2013-05-27 04:13:00,
2013-05-26 23:23:00,57.0,-99.9,-100.00,North,-999,-999.0,-999.0,-999,0.00,,,2.60,,2013-05-27 04:23:00,
2013-05-26 23:30:00,57.0,-99.9,-100.00,North,-999,-999.0,-999.0,-999,0.00,,,2.08,,2013-05-27 04:30:00,
2013-05-26 23:53:00,57.0,-99.9,-100.00,North,-999,-999.0,-999.0,-999,0.00,,,2.08,,2013-05-27 04:53:00,